Location: Unspecified
(0.0000°N, 0.0000°E)
Time: 14:51:11
(UTC+00:00)

ITAMSAT 1 - Pass Details

Date: 10 December 2017
Orbit: 785 x 796 km, 98.9° (Epoch: 15 July)

Event Time Altitude Azimuth Distance (km) Brightness Sun altitude
Exits shadow 02:59:04 18° 156° (SSE) 1,870 10.0 -39.3°
Drops below altitude 10° 03:00:30 10° 166° (SSE) 2,344 10.5 -39.0°
Sets 03:03:02 0° 175° (S) 3,276 11.3 -38.4°
